Starlink 33579

operational
NORAD ID: 62764 Int'l Des: 2025-015 Owner: SPXS Country: US Constellation: starlink
LEOCIRCULAR

About Starlink 33579

Description loading...

Live Position

Loading 3D Globe...

Upcoming Passes

Altitude History

Altitude vs Time

uPlot chart will show altitude changes over time

Two-Line Element Set

1 62764U 25015G 25305.00342977 .00028572 00000-0 97300-3 0 9991
2 62764 53.1583 199.8417 0001568 96.2893 263.8286 15.30203139 44783
Epoch: Nov 1, 2025 • Age: 21 hours

Current Status

Altitude 476.2 km
Velocity 7.63 km/s
Sub-Earth Point 30.04°N, 129.41°W
Launch Date Jan 21, 2025
Age 0.7 years
Type internet

Technical Details

Classification Payload
Mass 575.00 kg
Dry Mass 530.00 kg
Total Mass 575.00 kg
Length 0.30 m
Diameter 4.10 m
Span 29.00 m
Shape Box + pan
Manufacturer SPXS
Bus Type Starlink V2MO
Phase Status In Orbit
Owner/State SPXS/US

Large Constellations

Loading constellations...